KRRT

Details ICAO KRRT
Name WARROAD INTL SWEDE CARLSON FIELD
Region United States
Timezone America/Chicago (UTC-5.0)
Plans Departing 0
Arriving 2
Stats Elevation 1,074 ft / 327 m (AMSL)
Location 48.940909° -95.347582°
Runways 2
Magnetic Variation 1.498° E
Sunrise 2018-05-26 10:28:16 UTC / 2018-05-26 05:28:16 Local
Sunset 2018-05-27 02:11:32 UTC / 2018-05-26 21:11:32 Local
Advertisement - Login to hide

Runways

ID Width Length Bearing (true) Bearing (mag) Surface Threshold Offset Overrun Length
04 150 ft / 46 m 2,995 ft / 913 m 43.81° 42.31° Grass 0 ft / 0 m 0 ft / 0 m
13 100 ft / 30 m 5,395 ft / 1,644 m 138.67° 137.17° Asphalt 0 ft / 0 m 0 ft / 0 m
22 150 ft / 46 m 2,995 ft / 913 m 223.82° 222.32° Grass 0 ft / 0 m 0 ft / 0 m
31 100 ft / 30 m 5,395 ft / 1,644 m 318.68° 317.18° Asphalt 0 ft / 0 m 0 ft / 0 m

Map

Weather


0- 5 10 15 20 25 30 35+ Temperature / ° C

Clouds and Precipitation
Forecast for 2018-05-26 12:00 UTC. Updated an hour ago

Ground ~20,000 ft ~40,000 ft Winds

METAR

KRRT 261215Z AUTO 26005KT 10SM CLR 18/16 A2963 RMK AO2

TAF

Not found

Frequencies

Recorded 119.92 MHz AWOS 3
Unicom 123.05 MHz CTAF/UNICOM
Warning: Do not use this data for real-world aviation or navigation. No guarantee of current accuracy is given.